Torna al catalogo

STARLINK-31001

AttivoComunicazioniVLEO
NORAD 58527·PAYLOAD·🇺🇸 United States

Lanciato Dec 7, 2023 da Cape Canaveral Space Force Station

Loading…

Prossimi Passaggi (prossime 24 ore)

TLE

AggiornatoSource: CelesTrak SupGP

Epoca: Sep 15, 2026, 03:26 UTC

1 58527C 23191V   26258.14354167  .00037731  00000+0  13669-2 0  2582
2 58527  43.0017 113.4858 0001401 269.2880 136.0693 15.27552315    10

Traccia STARLINK-31001 in tempo reale con AllMySat

Download on the App Store